Regional Weather Roundup
Issued by NWS

Home | Current Version | Previous Version | Graphics & Text | Print | Product List | Glossary On
Versions: 1 2 3 4 5 6 7 8 9 10 11 12 13 14 15 16 17 18 19 20 21 22 23 24 25 26 27 28 29 30 31 32 33 34 35 36 37 38 39 40 41 42 43 44 45 46 47 48 49 50
000
ASUS43 KOAX 021802
RWRNE

WEATHER ROUNDUP FOR NEBRASKA
NATIONAL WEATHER SERVICE OMAHA NE
1200 PM CST FRI DEC 02 2016

NOTES: SATELLITE DATA IS BEING USED TO AUGMENT CLOUD COVER ABOVE
       12000 FEET.
       "FAIR" INDICATES FEW OR NO CLOUDS BELOW 12,000 FEET WITH NO
       SIGNIFICANT WEATHER AND/OR OBSTRUCTIONS TO VISIBILITY.

  * THESE STATIONS DO NOT REPORT WEATHER SUCH AS RAIN...SNOW OR FOG.

NEZ001>004-019>022-054>056-021900-
NEBRASKA PANHANDLE

CITY           SKY/WX    TMP DP  RH WIND       PRES   REMARKS
SCOTTSBLUFF    SUNNY     37  24  59 W9        30.22F WCI  30
6HR MIN TEMP:  12; 6HR MAX TEMP:  37;

ALLIANCE       SUNNY     40  25  55 N9        30.20S WCI  34
6HR MIN TEMP:   7; 6HR MAX TEMP:  40;

CHADRON        SUNNY     41  24  51 W8        30.22R
6HR MIN TEMP:  21; 6HR MAX TEMP:  41;

KIMBALL        PTSUNNY   34  27  75 CALM      30.21S
SIDNEY         CLOUDY    36  25  64 NE3       30.23S
6HR MIN TEMP:  14; 6HR MAX TEMP:  36;

$$

NEZ057>060-069>072-079>082-021900-
SOUTHWEST NEBRASKA

CITY           SKY/WX    TMP DP  RH WIND       PRES   REMARKS
NORTH PLATTE   SUNNY     37  24  59 S3        30.25S
6HR MIN TEMP:  12; 6HR MAX TEMP:  37;

IMPERIAL       CLOUDY    40  25  55 N6        30.24F
6HR MIN TEMP:  18; 6HR MAX TEMP:  40;

LEXINGTON      SUNNY     36  26  65 SE5       30.27F WCI  32
MCCOOK         MOSUNNY   35  22  58 CALM      30.26F
6HR MIN TEMP:  16; 6HR MAX TEMP:  35;

OGALLALA       SUNNY     38  26  61 W9        30.24F WCI  31
$$

NEZ005>010-023>029-035>040-094-021900-
NORTH CENTRAL NEBRASKA

CITY           SKY/WX    TMP DP  RH WIND       PRES   REMARKS
VALENTINE      SUNNY     36  22  56 W5        30.23S WCI  32
6HR MIN TEMP:  20; 6HR MAX TEMP:  37;

AINSWORTH      MOSUNNY   33  26  75 CALM      30.24S
BROKEN BOW     SUNNY     38  25  59 S5        30.25R WCI  34
6HR MIN TEMP:  20; 6HR MAX TEMP:  39;

O`NEILL        CLOUDY    33  27  77 CALM      30.26F
ORD            SUNNY     36  24  62 N6        30.26S WCI  31
6HR MIN TEMP:  15; 6HR MAX TEMP:  36;

THEDFORD       SUNNY     40  23  50 NW3       30.23F
$$

NEZ041-046>049-061>064-073>077-083>087-021900-
SOUTH CENTRAL NEBRASKA

CITY           SKY/WX    TMP DP  RH WIND       PRES   REMARKS
GRAND ISLAND   SUNNY     37  27  67 VRB3      30.29R
6HR MIN TEMP:  19; 6HR MAX TEMP:  37;

AURORA         SUNNY     37  26  66 CALM      30.29R
HASTINGS       SUNNY     37  26  64 E3        30.29S
6HR MIN TEMP:  18; 6HR MAX TEMP:  37;

HEBRON         SUNNY     39  27  62 NE3       30.28F
HOLDREGE       SUNNY     36  26  67 NE3       30.27S
KEARNEY *      SUNNY     37  25  60 CALM      30.28S
YORK           SUNNY     36  27  69 CALM      30.29S
$$

NEZ011>018-030>034-042>045-021900-
NORTHEAST NEBRASKA

CITY           SKY/WX    TMP DP  RH WIND       PRES   REMARKS
NORFOLK        CLOUDY    35  28  75 N8        30.26F WCI  29
6HR MIN TEMP:  19; 6HR MAX TEMP:  35;

ALBION         MOSUNNY   36  27  71 N8        30.27S WCI  29
BLAIR          CLOUDY    38  31  76 NW7       30.26S WCI  32
FREMONT        PTSUNNY   37  30  75 CALM      30.28S
TEKAMAH        CLOUDY    37  30  75 NE6       30.28F WCI  32
6HR MIN TEMP:  28; 6HR MAX TEMP:  37;

WAYNE          CLOUDY    37  29  72 NW7       30.27S WCI  31
$$

NEZ050>053-065>068-078-088>093-021900-
SOUTHEAST NEBRASKA

CITY           SKY/WX    TMP DP  RH WIND       PRES   REMARKS
LINCOLN        SUNNY     40  29  64 CALM      30.31R
6HR MIN TEMP:  20; 6HR MAX TEMP:  41;

OMAHA EPPLEY   PTSUNNY   39  29  67 N8        30.28S WCI  33
6HR MIN TEMP:  27; 6HR MAX TEMP:  41;

BEATRICE       SUNNY     40  29  64 CALM      30.30S
FALLS CITY     SUNNY     40  28  62 CALM      30.30S
6HR MIN TEMP:  20; 6HR MAX TEMP:  40;

NEBRASKA CITY  SUNNY     39  27  60 CALM      30.29R
PLATTSMOUTH    MOSUNNY   39  27  62 SW3       30.28S
$$

NEZ044-045-051>053-067-021900-
OMAHA AREA

CITY           SKY/WX    TMP DP  RH WIND       PRES   REMARKS
OMAHA EPPLEY   PTSUNNY   39  29  67 N8        30.28S WCI  33
6HR MIN TEMP:  27; 6HR MAX TEMP:  41;

BLAIR          CLOUDY    38  31  76 NW7       30.26S WCI  32
FREMONT        PTSUNNY   37  30  75 CALM      30.28S
MILLARD        MOSUNNY   40  30  67 W6        30.29R
OFFUTT AFB     PTSUNNY   40  30  68 W3        30.28S
PLATTSMOUTH    MOSUNNY   39  27  62 SW3       30.28S
WAHOO          FAIR      39  29  66 CALM      30.29R
$$




USA.gov is the U.S. government's official web portal to all federal, state and local government web resources and services.